Showing default

GEESAT 4-11, 65129

Orbit data source: Space-Track

GEESAT 4-11, 65129 is a payload satellite owned by GeeSpace (CN) in LEO that was launched on Fri, 08 Aug 2025 UTC via a JIELONG-3 launch vehicle from the Yellow Sea Launch Area, China (YSLA). Payload-class satellites include a variety of spacecraft equipped with specific instruments for various scientific and technological missions. These include communications satellites like Starlink; space stations such as the ISS; scientific satellites like the Hubble; Earth observation satellites from companies like Planet Labs, Umbra, and HawkEye 360; GPS; miniature CubeSats for education and research; and military/defense satellites.

Loading next visibility...
Identifier
65129, 2025-170L
Orbit
LEO
Country
Flag of CNCN / PRC
Related business
Manufacturer
GWCG
Mission
Operational Commercial Navigation
Bus & Motor
GPS100, Unknown motor
Mass
130 kg wet, 130 kg dry
Launch date (UTC)
2025-08-08 (6 months ago)
Launch vehicle
JIELONG-3
Launch site
Yellow Sea Launch Area, China (YSLA)
Object type
Payload
Rocket body
Debris
Shape & HBR
Box + 2 Pan, 0.9 m
Radar Cross Section
0.833 m², Medium (>0.1 m² and < 1m²)

Expand to show TLE details & history
Last TLE update: 15 hours ago

TLE from 15 hours ago
0 GEESAT 4-11
1 65129U 25170L   26034.63106567  .00002855  00000-0  36981-3 0  9997
2 65129  49.9835  73.0460 0007526 299.2393  60.7792 14.83578869 26604
Epoch: 2026-02-03T15:08Z
TLE epoch observation values (Epoch: 2026-02-03T15:08:44.073Z)
Latitude
-0.00005°
Longitude
72.05309°
Altitude
616.025 km
Speed
7.554 km/s
True Right ascension
04h 52m 11s
True Declination
0° 00' 00"
Sunlit
Object was in full shadow at epoch
Visualization orbit readout
Latitude
Unknown
Longitude
Unknown
Altitude
Unknown
Speed
Unknown
Apparent Right ascension
Unknown
Apparent Declination
Unknown
Sunlit
N/A
Visualization observer readout
Local Sidereal Time
08:35:34
Azimuth
Unknown
Elevation
Unknown
Doppler factor
Unknown
Orbital elements
Apogee altitude
624.077 km
Perigee altitude
613.545 km
Semi-major axis
6,996.948 km
Eccentricity
0.00075
Inclination
49.9835°
RAAN
73.046°
Arg. of periapsis
299.2393°
True anomaly
60.8545°
Mean anomaly
60.7792°
Eccentric anomaly
60.81685°
Mean motion
3.70835 °/min
Orbital period
97.08 mins
BSTAR
0.00036981
Loading maneuver chart data...
Computing Atmospheric mass density...
Loading historical data...
Loading historical data...
Loading historical data...
Loading historical data...
Loading historical data...
Loading historical data...
Loading historical data...

Documentation

Showing up to 5 results
|